Home   Weather   Thiruvananthapuram   Past weeks
Flag for India

Past Weather in Thiruvananthapuram, Kerala, India — Yesterday and Last 2 Weeks

Now
84 °F

Haze.


Feels Like: 92 °F
Forecast: 95 / 77 °F
Wind: 6 mph from North

Location: Thiruvananthapuram

Current Time: Mar 26, 2019 at 2:05:36 am

Latest Report: Mar 26, 2019 at 1:30 am


Visibility: 2 mi

Pressure: 29.83 "Hg

Humidity: 74%

Dew Point: 75 °F

Location of ThiruvananthapuramLocation

Past Weather in Thiruvananthapuram — Graph

°F

Thiruvananthapuram Temperature Yesterday

Maximum temperature yesterday: 93 °F (at 2:00 pm)
Minimum temperature yesterday: 81 °F (at 4:30 am)
Average temperature yesterday: 87 °F

High & Low Weather Summary for the Past Weeks

 TemperatureHumidityPressure
High95 °F (Mar 13, 12:30 pm)100% (Mar 12, 2:30 am)30.09 "Hg (Mar 12, 2:30 am)
Low77 °F (Mar 12, 2:30 am)47% (Mar 13, 12:30 pm)29.71 "Hg (Mar 19, 3:30 pm)
Average87 °F71%29.85 "Hg
* Reported Mar 11 12:30 am — Mar 26 12:30 am, Thiruvananthapuram. Weather by CustomWeather, © 2019

Note: Actual official high and low records may vary slightly from our data, if they occured in-between our weather recording intervals... More about our weather records

Advertising

Thiruvananthapuram Weather History for the Previous 24 Hours

Scroll right to see more
 ConditionsComfort  
Time TempWeatherWind HumidityBarometerVisibility
12:30 am
Tue, Mar 26
84 °FHaze.6 mph74%29.83 "Hg2 mi
12:00 am84 °FHaze.6 mph74%29.86 "Hg2 mi
11:30 pm
Mon, Mar 25
86 °FHaze.6 mph70%29.86 "Hg2 mi
11:00 pm86 °FHaze.6 mph70%29.86 "Hg2 mi
10:30 pm86 °FHaze.6 mph70%29.86 "Hg2 mi
10:00 pm88 °FHaze.7 mph66%29.86 "Hg2 mi
9:30 pm88 °FHaze.8 mph66%29.83 "Hg2 mi
9:00 pm88 °FHaze.8 mph66%29.83 "Hg2 mi
8:30 pm88 °FHaze.7 mph66%29.80 "Hg2 mi
8:00 pm88 °FHaze.7 mph66%29.80 "Hg2 mi
7:30 pm88 °FHaze.7 mph66%29.77 "Hg2 mi
7:00 pm88 °FHaze.8 mph66%29.77 "Hg3 mi
6:30 pm90 °FHaze.7 mph63%29.74 "Hg3 mi
6:00 pm90 °FHaze.6 mph63%29.74 "Hg3 mi
5:30 pm90 °FHaze.8 mph67%29.74 "Hg3 mi
5:00 pm90 °FPassing clouds.8 mph63%29.71 "Hg4 mi
4:30 pm91 °FPassing clouds.9 mph59%29.71 "Hg4 mi
4:00 pm91 °FPassing clouds.10 mph59%29.71 "Hg4 mi
3:30 pm91 °FPassing clouds.8 mph59%29.71 "Hg4 mi
3:00 pm91 °FPassing clouds.7 mph63%29.74 "Hg4 mi
2:30 pm91 °FPassing clouds.10 mph63%29.74 "Hg4 mi
2:00 pm93 °FPassing clouds.9 mph59%29.74 "Hg4 mi
1:30 pm91 °FPassing clouds.8 mph63%29.77 "Hg4 mi
1:00 pm91 °FPassing clouds.7 mph63%29.77 "Hg4 mi
12:30 pm91 °FPassing clouds.8 mph63%29.80 "Hg4 mi
12:00 pm90 °FPassing clouds.8 mph67%29.80 "Hg4 mi
11:30 am90 °FPassing clouds.8 mph67%29.83 "Hg4 mi
11:00 am90 °FPassing clouds.8 mph67%29.83 "Hg4 mi
10:30 am90 °FPassing clouds.8 mph67%29.86 "Hg4 mi
10:00 am90 °FHaze.6 mph67%29.86 "Hg3 mi
9:30 am88 °FHaze.6 mph70%29.86 "Hg3 mi
8:00 am86 °FHaze.3 mph70%29.83 "Hg2 mi
7:30 am82 °FHaze.3 mph79%29.83 "Hg2 mi
7:00 am81 °FHaze.2 mph84%29.80 "Hg1 mi
6:30 am81 °FHaze.3 mph84%29.80 "Hg1 mi
6:00 am81 °FHaze.3 mph84%29.77 "Hg2 mi
5:30 am81 °FHaze.5 mph84%29.77 "Hg2 mi
5:00 am81 °FHaze.5 mph84%29.77 "Hg2 mi
4:30 am81 °FHaze.5 mph84%29.77 "Hg2 mi
4:00 am82 °FHaze.3 mph79%29.77 "Hg2 mi
3:30 am82 °FHaze.3 mph79%29.77 "Hg2 mi
3:00 am84 °FHaze.2 mph74%29.77 "Hg2 mi
2:30 am84 °FHaze.5 mph74%29.77 "Hg2 mi
2:00 am84 °FHaze.5 mph74%29.77 "Hg2 mi
Weather by CustomWeather, © 2019

See weather overview